TimeCDT,TemperatureF,Dew PointF,Humidity,Sea Level PressureIn,VisibilityMPH,Wind Direction,Wind SpeedMPH,Gust SpeedMPH,PrecipitationIn,Events,Conditions,WindDirDegrees,DateUTC
12:15 AM,42.8,30.2,61,29.97,10.0,North,12.7,-,N/A,,Overcast,350,2011-10-19 05:15:00
12:35 AM,42.8,32.0,66,29.97,10.0,North,11.5,-,N/A,,Overcast,350,2011-10-19 05:35:00
12:55 AM,42.8,32.0,66,29.96,10.0,North,13.8,18.4,N/A,,Overcast,350,2011-10-19 05:55:00
1:15 AM,42.8,32.0,66,29.96,10.0,North,13.8,19.6,N/A,,Overcast,10,2011-10-19 06:15:00
1:55 AM,41.0,33.8,76,29.96,10.0,North,13.8,-,N/A,,Overcast,360,2011-10-19 06:55:00
2:15 AM,41.0,33.8,76,29.96,10.0,North,12.7,-,N/A,,Overcast,360,2011-10-19 07:15:00
2:35 AM,41.0,33.8,76,29.96,10.0,North,12.7,16.1,N/A,,Overcast,360,2011-10-19 07:35:00
3:15 AM,41.0,33.8,76,29.96,10.0,North,9.2,-,N/A,,Light Drizzle,360,2011-10-19 08:15:00
3:35 AM,39.2,33.8,81,29.96,10.0,North,10.4,19.6,N/A,,Light Drizzle,360,2011-10-19 08:35:00
4:35 AM,39.2,33.8,81,29.96,10.0,North,13.8,-,N/A,,Light Drizzle,360,2011-10-19 09:35:00
4:55 AM,39.2,33.8,81,29.96,10.0,North,11.5,-,N/A,,Overcast,360,2011-10-19 09:55:00
5:15 AM,39.2,33.8,81,29.97,10.0,North,12.7,-,N/A,,Overcast,360,2011-10-19 10:15:00
5:35 AM,39.2,33.8,81,29.97,10.0,North,12.7,-,N/A,,Overcast,350,2011-10-19 10:35:00
5:55 AM,39.2,33.8,81,29.97,10.0,North,12.7,17.3,N/A,,Overcast,350,2011-10-19 10:55:00
6:15 AM,39.2,33.8,81,29.98,10.0,North,11.5,-,N/A,,Overcast,360,2011-10-19 11:15:00
6:35 AM,39.2,33.8,81,29.98,10.0,North,10.4,-,N/A,,Overcast,360,2011-10-19 11:35:00
6:55 AM,39.2,33.8,81,29.99,10.0,North,10.4,-,N/A,,Overcast,360,2011-10-19 11:55:00
7:35 AM,39.2,33.8,81,29.99,10.0,North,12.7,-,N/A,,Light Drizzle,350,2011-10-19 12:35:00
7:55 AM,39.2,33.8,81,29.99,10.0,North,9.2,-,N/A,,Overcast,350,2011-10-19 12:55:00
8:15 AM,41.0,33.8,76,30.00,10.0,North,12.7,18.4,N/A,,Overcast,350,2011-10-19 13:15:00
8:35 AM,41.0,33.8,76,30.00,10.0,North,11.5,-,N/A,,Overcast,360,2011-10-19 13:35:00
8:55 AM,41.0,33.8,76,30.01,10.0,North,11.5,-,N/A,,Overcast,360,2011-10-19 13:55:00
9:55 AM,42.8,33.8,70,30.01,10.0,North,11.5,17.3,N/A,,Overcast,360,2011-10-19 14:55:00
10:15 AM,42.8,33.8,70,30.01,10.0,North,15.0,-,N/A,,Overcast,360,2011-10-19 15:15:00
10:35 AM,44.6,33.8,66,30.01,10.0,North,16.1,20.7,N/A,,Light Drizzle,360,2011-10-19 15:35:00
11:15 AM,44.6,32.0,61,30.00,10.0,North,18.4,-,N/A,,Overcast,10,2011-10-19 16:15:00
11:55 AM,46.4,30.2,53,29.99,10.0,North,18.4,23.0,N/A,,Mostly Cloudy,360,2011-10-19 16:55:00
12:35 PM,46.4,28.4,50,29.98,10.0,North,21.9,25.3,N/A,,Mostly Cloudy,360,2011-10-19 17:35:00
12:55 PM,48.2,28.4,46,29.98,10.0,NNE,16.1,24.2,N/A,,Overcast,20,2011-10-19 17:55:00
1:15 PM,48.2,28.4,46,29.97,10.0,North,18.4,21.9,N/A,,Overcast,10,2011-10-19 18:15:00
1:35 PM,48.2,26.6,43,29.97,10.0,NNE,16.1,23.0,N/A,,Overcast,20,2011-10-19 18:35:00
1:55 PM,50.0,28.4,43,29.96,10.0,North,20.7,26.5,N/A,,Overcast,10,2011-10-19 18:55:00
2:15 PM,48.2,28.4,46,29.95,10.0,North,16.1,26.5,N/A,,Overcast,10,2011-10-19 19:15:00
2:55 PM,48.2,26.6,43,29.95,10.0,North,18.4,24.2,N/A,,Overcast,10,2011-10-19 19:55:00
3:15 PM,48.2,28.4,46,29.95,10.0,North,15.0,23.0,N/A,,Overcast,10,2011-10-19 20:15:00
3:55 PM,46.4,28.4,50,29.96,10.0,North,20.7,24.2,N/A,,Overcast,360,2011-10-19 20:55:00
4:15 PM,46.4,28.4,50,29.96,10.0,North,20.7,27.6,N/A,,Overcast,350,2011-10-19 21:15:00
4:35 PM,46.4,30.2,53,29.96,10.0,North,18.4,-,N/A,,Overcast,350,2011-10-19 21:35:00
4:55 PM,46.4,30.2,53,29.96,10.0,NNW,19.6,-,N/A,,Overcast,340,2011-10-19 21:55:00
5:15 PM,46.4,28.4,50,29.96,10.0,North,15.0,24.2,N/A,,Overcast,350,2011-10-19 22:15:00
5:35 PM,46.4,28.4,50,29.97,10.0,NNW,16.1,-,N/A,,Overcast,340,2011-10-19 22:35:00
5:55 PM,46.4,28.4,50,29.97,10.0,North,15.0,18.4,N/A,,Overcast,350,2011-10-19 22:55:00
6:15 PM,44.6,28.4,53,29.98,10.0,NNW,16.1,-,N/A,,Overcast,340,2011-10-19 23:15:00
6:35 PM,44.6,28.4,53,29.97,10.0,NNW,15.0,-,N/A,,Overcast,340,2011-10-19 23:35:00
6:55 PM,44.6,30.2,57,29.97,10.0,NNW,13.8,-,N/A,,Overcast,330,2011-10-19 23:55:00
7:15 PM,44.6,30.2,57,29.97,10.0,NNW,12.7,-,N/A,,Overcast,330,2011-10-20 00:15:00
7:35 PM,44.6,30.2,57,29.97,10.0,NNW,15.0,-,N/A,,Overcast,330,2011-10-20 00:35:00
7:55 PM,44.6,30.2,57,29.97,10.0,NNW,16.1,20.7,N/A,,Overcast,330,2011-10-20 00:55:00
8:15 PM,44.6,30.2,57,29.97,10.0,NNW,18.4,24.2,N/A,,Overcast,330,2011-10-20 01:15:00
8:55 PM,42.8,30.2,61,29.96,10.0,NNW,13.8,25.3,N/A,,Scattered Clouds,330,2011-10-20 01:55:00
9:15 PM,42.8,30.2,61,29.95,10.0,NNW,15.0,21.9,N/A,,Scattered Clouds,330,2011-10-20 02:15:00
9:35 PM,42.8,30.2,61,29.95,10.0,NNW,15.0,21.9,N/A,,Overcast,330,2011-10-20 02:35:00
9:55 PM,42.8,30.2,61,29.95,10.0,NNW,15.0,-,N/A,,Scattered Clouds,330,2011-10-20 02:55:00
10:15 PM,42.8,30.2,61,29.94,10.0,NNW,17.3,-,N/A,,Clear,340,2011-10-20 03:15:00
10:35 PM,42.8,28.4,57,29.94,10.0,NNW,15.0,-,N/A,,Clear,340,2011-10-20 03:35:00
10:55 PM,42.8,30.2,61,29.94,10.0,NNW,16.1,20.7,N/A,,Mostly Cloudy,340,2011-10-20 03:55:00
11:15 PM,42.8,28.4,57,29.93,10.0,NNW,17.3,20.7,N/A,,Overcast,340,2011-10-20 04:15:00
11:35 PM,41.0,28.4,61,29.93,10.0,North,16.1,-,N/A,,Overcast,350,2011-10-20 04:35:00
11:55 PM,41.0,28.4,61,29.93,10.0,NNW,15.0,19.6,N/A,,Overcast,340,2011-10-20 04:55:00